Terug naar catalogus

STARLINK-6042

ActiefCommunicatieVLEO
NORAD 56808·PAYLOAD·🇺🇸 United States

Gelanceerd May 31, 2023 vanaf Vandenberg Space Force Base

Loading…

Volgende Passages (komende 24 uur)

TLE

VersSource: CelesTrak SupGP

Epoch: Sep 15, 2026, 02:50 UTC

1 56808C 23078AT  26258.11854167  .00025056  00000+0  20999-2 0  2589
2 56808  70.0011 156.9212 0002964 272.7861  11.3208 14.98317368    14

Volg STARLINK-6042 in realtime met AllMySat

Download on the App Store